Regional Weather Roundup
Issued by NWS

Home | Current Version | Previous Version | Graphics & Text | Print | Product List | Glossary On
Versions: 1 2 3 4 5 6 7 8 9 10 11 12 13 14 15 16 17 18 19 20 21 22 23 24 25 26 27 28 29 30 31 32 33 34 35 36 37 38 39 40 41 42 43 44 45 46 47 48 49 50
000
ASUS45 KTFX 030119
RWRMT
MONTANA HOURLY WEATHER ROUNDUP
NATIONAL WEATHER SERVICE GREAT FALLS MT
619 PM MST MON MAR 2 2015

NOTE: "FAIR" INDICATES FEW OR NO CLOUDS BELOW 12000 FEET WITH NO
SIGNIFICANT WEATHER AND/OR OBSTRUCTIONS TO VISIBILITY.

* THESE STATIONS ARE NOT UNDER NWS QUALITY CONTROL. THEY DO NOT
   REPORT WEATHER SUCH AS PRECIPITATION OR FOG.

MTZ001>007-043-030200-
WEST OF THE DIVIDE
CITY           SKY/WX    TMP DP  RH WIND       PRES   REMARKS
KALISPELL      CLOUDY    27   9  46 NE22G33   29.97R WCI  13
MISSOULA       HAZE      30  21  69 E15       29.84R WCI  19
BUTTE          LGT SNOW  23  14  68 NE20G35   29.72R WCI   8
MULLAN PASS    HVY SNOW  21  19  92 CALM      29.71S VSB M1/4
* ANACONDA     CLOUDY    21  16  81 NW22G28    N/A   WCI   5
* ESSEX        N/A       21   6  52 NE4G20     N/A
* EUREKA APT   CLOUDY    28   3  34 NE22G38   30.01R WCI  14
* HAMILTON APT CLOUDY    34  21  59 N12       29.76R WCI  25
* LIBBY APT    CLOUDY    28  21  75 NW5       29.98R WCI  22
* LINCOLN      N/A       20   9  62 NE18G31    N/A   WCI   5
* LOOKOUT PASS N/A       25  24  96 N5         N/A   WCI  19
* POLSON       N/A       25  17  72 N3G8       N/A
* RONAN APT    CLOUDY    28  25  89 N/A        N/A
* SEELEY LAKE  N/A       26  22  85 NW2        N/A
* THOMP F APT  CLOUDY    35   7  31 SE3G8      N/A
$$

MTZ008-052>055-030200-
SOUTHWEST MONTANA
CITY           SKY/WX    TMP DP  RH WIND       PRES   REMARKS
BOZEMAN        MOCLDY    30  16  56 N22       29.72R WCI  17
DILLON         CLOUDY    30  12  47 NE18G31   29.66R WCI  18
* W YELLOWSTON CLOUDY    33  11  40 SW1        N/A
* THREE FORKS  CLOUDY    30  14  51 N23G33     N/A   WCI  17
* BOULDER HILL N/A       16  12  84 N21G32     N/A   WCI  -1
* MONIDA PASS  N/A       27   3  35 N6         N/A   WCI  20
* RAYNOLDS PAS N/A       26 -21  11 VRB12G19    N/A   WCI  15
* WHITEHALL    N/A       29  17  61 N14G30     N/A   WCI  18
* WISE RIVER   N/A       28  12  51 NE19G25    N/A   WCI  15
$$

MTZ009>010-012-014-046-048-049-054-030200-
EAST SLOPES AND CENTRAL MONTANA
CITY           SKY/WX    TMP DP  RH WIND       PRES   REMARKS
CUT BANK       CLOUDY    18  14  84 N12       30.03S WCI   5
GREAT FALLS    LGT SNOW  18  14  84 N20       30.01R VSB 3/4  WCI   2
HELENA         CLOUDY    23  12  63 N21G30    29.92R WCI   8
MALMSTROM AFB  LGT SNOW  19  14  81 N16G25    30.03R WCI   4
* CONRAD       CLOUDY    19  14  81 NW16       N/A   WCI   4
* DEARBORN     N/A       20  15  81 N15G25     N/A   WCI   6
* EAST GLACIER N/A       14  10  84 E12        N/A
* MONARCH      N/A       13   9  84 N21G30     N/A   WCI  -5
* PENDROY      N/A       16  14  92 N12G18     N/A   WCI   3
* ROGERS PASS  N/A       11   8  88 S6G18      N/A   WCI   1
* SWEET GRASS  N/A       17  13  84 NE14       N/A   WCI   3
* WHITE SULPH  N/A       22   7  52 NW14G20    N/A   WCI   9
$$

MTZ011-013-016-021-035-040-045-047-050-051-030200-
NORTH CENTRAL MONTANA
CITY           SKY/WX    TMP DP  RH WIND       PRES   REMARKS
HAVRE          LGT SNOW  21  14  74 N13       30.06R WCI   8
LEWISTOWN      LGT SNOW  21  14  74 NW10      29.91R WCI  10
* N BAR RANCH  HAZE      21  16  81 NW18      29.85R VSB 2    WCI   6
* CHINOOK      CLOUDY    21   9  60 NW12G18   30.06R WCI   9
* FORT BENTON  CLOUDY    23  12  63 N20       30.06R WCI   8
* CHESTER      N/A       20  11  68 NE10G17    N/A   WCI   9
* DENTON       N/A       21  15  78 NW21G27    N/A   WCI   5
* GEYSER       N/A       20  12  71 N11G20     N/A   WCI   8
* JUDITH GAP   N/A       18  18 100 N32G45     N/A   WCI  -2
* LOMA         N/A       23  13  65 N18G27     N/A   WCI   9
$$

MTZ017>020-022>027-061-062-030200-
NORTHEAST MONTANA
CITY           SKY/WX    TMP DP  RH WIND       PRES   REMARKS
GLASGOW        CLOUDY    21  10  62 N24G33    29.94R WCI   4
GLENDIVE       CLOUDY    28  19  69 N24G32    29.82R WCI  14
JORDAN         MOCLDY    25  16  69 N24G35    29.90R WCI  10
SIDNEY         CLOUDY    25  16  69 NW22G30   29.88R WCI  10
WOLF POINT     CLOUDY    25  12  58 N16G24    29.91R WCI  12
* BEAVER HILL  N/A       33  20  59 NW18G26    N/A   WCI  22
* CIRCLE       N/A       24  16  71 VRB8G21    N/A   WCI  15
* LINDSAY DVD  N/A       26  20  78 NW23G32    N/A   WCI  11
* NAVAJO       N/A       17  11  77 N28G35     N/A   WCI  -2
* PLENTYWOOD A CLOUDY    18  12  77 NW29G35   29.83R WCI  -1
* POPLAR APT   CLOUDY    21  14  74 NW20G25   29.90R WCI   6
* SACO         N/A       23  12  63 NW16G24    N/A   WCI  10
$$

MTZ028>042-056>058-030200-
SOUTHCENTRAL AND SOUTHEAST MONTANA
CITY           SKY/WX    TMP DP  RH WIND       PRES   REMARKS
BAKER          CLOUDY    36  18  48 NW17      29.74R WCI  26
BILLINGS       CLOUDY    30  18  61 NE23G32   29.79R WCI  17
LIVINGSTON     CLOUDY    28  18  66 E15       29.77R WCI  16
MILES CITY     CLOUDY    34  19  54 N18       29.79R WCI  23
* BIG TIMBER A MOCLDY    25  14  63 N15G22    29.80R WCI  13
* FORSYTH APT  CLOUDY    32  21  64 NW10G18   29.84R WCI  24
* LAUREL APT   CLOUDY    32  12  43 N13G20     N/A   WCI  22
* ROUNDUP APT  PTCLDY    27  16  63 N14G29     N/A   WCI  16
* ALZADA       N/A       33  19  56 NW4        N/A
* HYSHAM       N/A       30  18  61 NE6G16     N/A   WCI  24
* LAME DEER    N/A       30  17  58 NW14G22    N/A   WCI  19
* REED POINT   N/A       30  15  54 NW5G13     N/A   WCI  25
* ROSCOE HILL  N/A       29  10  45 N12G17     N/A   WCI  19
$$

REGIONAL REPORTS...DAKOTAS
CITY           SKY/WX    TMP DP  RH WIND       PRES   REMARKS
WILLISTON      CLOUDY    21  16  81 N22G32    29.83R WCI   5
DICKINSON      MOCLDY    30  14  51 NW13      29.69S WCI  20
BEACH          CLEAR     32  21  64 NW15      29.77R WCI  22
CROSBY         LGT SNOW  18  16  92 NW30G40   29.80R WCI  -1
TIOGA          CLOUDY    23  21  92 NW23G35   29.78R WCI   7
WATFORD CITY   CLEAR     25  19  78 NW29G36   29.77R WCI   8
BISMARCK       MOCLDY    34  25  70 CALM      29.73S
GRAND FORKS    FAIR      27  18  69 S20G26    29.85F WCI  13
FARGO          CLOUDY    28  18  66 S22G35    29.92F WCI  14
BUFFALO SD     CLOUDY    37  16  42 NW13      29.65S WCI  29
RAPID CITY     CLOUDY    39  23  53 N9        29.67F WCI  33
$$

REGIONAL REPORTS...WYOMING/IDAHO/WASHINGTON
CITY           SKY/WX    TMP DP  RH WIND       PRES   REMARKS
GILLETTE       CLOUDY    36  14  40 NE10      29.67S WCI  29
SHERIDAN       CLOUDY    34  23  64 NW7       29.71S WCI  28
CODY           CLOUDY    34  14  44 NW9       29.68R WCI  27
YELLOWSTONE LA CLOUDY    25  16  69 CALM      29.63S
SALMON         CLOUDY    39  10  30 N8        29.64S WCI  33
MULLAN PASS    HVY SNOW  21  19  92 CALM      29.71S VSB M1/4
SAND POINT     CLOUDY    32  28  85 NE17G22   29.92R WCI  21
SPOKANE        MOCLDY    37  27  67 NE7       29.86R WCI  32
$$

REGIONAL REPORTS...ALBERTA
CITY           SKY/WX    TMP DP  RH WIND       PRES   REMARKS
CALGARY        PTCLDY    16   5  62 N20G26    30.12R WCI  -1
LETHBRIDGE     MOCLDY    19   9  65 N10G22    30.12R WCI   8
MEDICINE HAT   MOCLDY    19   9  65 N20G28    30.14R WCI   3
EDMONTON       SNOW      10  -6  48 NW17G25   30.23R WCI  -8
WATERTON GATE  N/A       16  14  92 N10G25     N/A   WCI   4
CARDSTON       N/A       18  16  92 N13G18     N/A   WCI   5
MILK RIVER     N/A       18  16  92 N21G29     N/A   WCI   1
$$

REGIONAL REPORTS...SASKATCHEWAN
CITY           SKY/WX    TMP DP  RH WIND       PRES   REMARKS
SWIFT CURRENT  LGT SNOW  12   9  88 NW24G33   29.99R WCI  -8
REGINA         LGT SNOW  14  10  84 NW32G38   29.87R WCI  -7
VAL MARIE      N/A       18   9  68 N17        N/A   WCI   3
ASSINIBOIA     N/A       14  10  84 NW21G28    N/A   WCI  -4
CORONACH       N/A       16  10  77 NW24G31    N/A   WCI  -2

$$



USA.gov is the U.S. government's official web portal to all federal, state and local government web resources and services.